Home   Weather   Aleppo   Past weeks

Flag for Syria Past Weather in Aleppo, Syria — Yesterday and Last 2 Weeks

Now
37 °F

Clear.


Feels Like: 31 °F
Forecast: 22 / 52 °F
Wind: 8 mph from North

Location: Gaziantep Airport

Current Time: Dec 8, 2016 at 6:06:08 pm

Latest Report: Dec 8, 2016 at 5:20 pm


Visibility: 10 mi

Pressure: 30.30 "Hg

Humidity: 45%

Dew Point: 18 °F

Location of AleppoLocation

Past Weather in Aleppo — Graph

°F

Aleppo Temperature Yesterday

Maximum temperature yesterday: 48 °F (at 12:50 pm)
Minimum temperature yesterday: 23 °F (at 4:50 am)
Average temperature yesterday: 36 °F

High & Low Weather Summary for the Past Weeks

 TemperatureHumidityPressure
High59 °F (Nov 25, 11:50 am)100% (Dec 1, 10:20 am)30.36 "Hg (Dec 1, 10:20 am)
Low21 °F (Nov 27, 3:50 am)13% (Nov 25, 10:20 am)29.53 "Hg (Dec 2, 2:50 am)
Average41 °F65%30.14 "Hg
* Reported Nov 23 4:20 pm — Dec 8 4:50 pm, Aleppo, Weather by CustomWeather, © 2016

Note: Actual official high and low records may vary slightly from our data, if they occured in-between our weather recording intervals... More about our weather records

Advertising

Aleppo Weather History for the Previous 24 Hours

Scroll right to see more
 ConditionsComfort  
Time TempWeatherWind HumidityBarometerVisibility
4:50 pm
Thu, Dec 8
39 °FClear.7 mph42%30.30 "Hg10 mi
4:20 pm43 °FPassing clouds.8 mph39%30.30 "HgN/A
3:50 pm45 °FSunny.7 mph37%30.27 "Hg10 mi
3:20 pm46 °FSunny.10 mph34%30.30 "Hg10 mi
2:50 pm46 °FPassing clouds.8 mph34%30.27 "HgN/A
2:20 pm46 °FPassing clouds.5 mph32%30.27 "HgN/A
1:50 pm46 °FPassing clouds.6 mph32%30.27 "HgN/A
1:20 pm46 °FPassing clouds.8 mph29%30.27 "HgN/A
12:50 pm46 °FPassing clouds.10 mph29%30.30 "HgN/A
12:20 pm46 °FPassing clouds.10 mph32%30.30 "HgN/A
11:50 am46 °FSunny.13 mph32%30.30 "Hg10 mi
11:20 am45 °FSunny.12 mph37%30.30 "Hg10 mi
10:50 am45 °FPassing clouds.10 mph37%30.33 "HgN/A
10:20 am45 °FSunny.16 mph37%30.33 "Hg10 mi
9:50 am43 °FSunny.17 mph39%30.33 "Hg10 mi
9:20 am43 °FSunny.20 mph39%30.33 "Hg10 mi
8:50 am41 °FSunny.16 mph42%30.36 "Hg10 mi
8:20 am41 °FSunny.16 mph45%30.33 "Hg10 mi
7:50 am39 °FSunny.13 mph48%30.33 "Hg10 mi
7:20 am39 °FSunny.10 mph52%30.33 "Hg10 mi
6:50 am37 °FSunny.9 mph56%30.30 "Hg10 mi
6:20 am36 °FPassing clouds.7 mph60%30.30 "HgN/A
5:50 am36 °FClear.7 mph60%30.30 "Hg10 mi
5:20 am36 °FClear.9 mph60%30.27 "Hg10 mi
4:20 am36 °FClear.7 mph60%30.27 "Hg10 mi
3:50 am36 °FClear.5 mph60%30.27 "Hg10 mi
3:20 am36 °FClear.5 mph65%30.27 "Hg10 mi
2:50 am36 °FClear.5 mph60%30.27 "Hg10 mi
2:20 am36 °FClear.5 mph60%30.27 "Hg10 mi
1:50 am39 °FClear.5 mph52%30.27 "Hg10 mi
1:20 am34 °FClear.5 mph70%30.27 "Hg10 mi
12:50 am36 °FClear.5 mph65%30.27 "Hg10 mi
12:20 am32 °FClear.No wind75%30.27 "Hg10 mi
11:50 pm
Wed, Dec 7
34 °FClear.6 mph75%30.27 "Hg10 mi
11:20 pm36 °FClear.5 mph70%30.27 "Hg10 mi
10:50 pm34 °FClear.2 mph75%30.27 "Hg10 mi
10:20 pm32 °FPassing clouds.3 mph80%30.27 "HgN/A
9:50 pm32 °FClear.3 mph87%30.27 "Hg10 mi
9:20 pm30 °FClear.2 mph93%30.27 "Hg10 mi
8:50 pm32 °FClear.2 mph87%30.27 "Hg10 mi
8:20 pm37 °FClear.2 mph75%30.27 "Hg10 mi
7:50 pm36 °FClear.2 mph87%30.27 "Hg10 mi
7:20 pm37 °FClear.2 mph81%30.27 "Hg10 mi
6:50 pm36 °FClear.2 mph81%30.24 "Hg10 mi
6:20 pm39 °FClear.2 mph75%30.24 "Hg10 mi
Weather by CustomWeather, © 2016

See weather overviewHow to use our weather pages